Volver al catálogo

ASIASAT 8

ActivoComunicacionesGEO
NORAD 40107·PAYLOAD·🇸🇭 SH

Lanzado Aug 5, 2014 desde Cape Canaveral Space Force Station

Loading…

TLE

ActualizadoSource: Space-Track

Época: Sep 14, 2026, 21:08 UTC

1 40107U 14046A   26257.88109389  .00000000  00000-0  00000-0 0  9995
2 40107   0.0178 169.4269 0001663 350.3090 256.5902  1.00272337103045

Sigue ASIASAT 8 en tiempo real con AllMySat

Download on the App Store